Location: Riverside Cemetery
(38.3047°N, 99.7773°W)
Time: 03:21:53
(UTC+00:00)

Cosmos 1689 Rocket - Pass Details

Date: 19 September 2020
Orbit: 363 x 378 km, 97.5° (Epoch: 22 October)

Event Time Altitude Azimuth Distance (km) Brightness Sun altitude
Rises 11:36:30 0° 162° (SSE) 2,223 6.0 -10.2°
Reaches altitude 10° 11:38:27 10° 159° (SSE) 1,381 5.0 -9.9°
Maximum altitude 11:41:22 66° 76° (ENE) 418 2.5 -9.3°
Drops below altitude 10° 11:44:19 10° 354° (N) 1,402 4.9 -8.7°
Sets 11:46:18 0° 351° (N) 2,262 6.0 -8.3°
